User: anonymous   Login
Location: Unspecified
(0.0000°N, 0.0000°E)
Time: 22:18:48
(UTC+00:00)
Language:

NNS O-27 - Orbit

View from above orbital plane
View from above orbital plane
View from above satellite
View from above satellite

Ground track
Ground track

The orbit data is extracted from the following two-line orbital elements,

1 18361U 87080A   24108.39028595  .00000235  00000-0  37318-3 0  9993
2 18361  90.3599  57.1972 0104785 154.3907 206.2484 13.44713961794590
Epoch (UTC): 17 April 2024 09:22:00
Eccentricity: 0.0104785
inclination: 90.3599°
perigee height: 1013 km
apogee height: 1170 km
right ascension of ascending node: 57.1972°
argument of perigee: 154.3907°
revolutions per day: 13.44713961
mean anomaly at epoch: 206.2484°
orbit number at epoch: 79459

The dashed part of the orbit path shows where the satellite is in the earth's shadow,  

DLR